User: anonymous
Location: Fort Wayne
(41.1310°N, 85.1290°W)
Time: 22:01:34
(UTC-04:00)
Language:

ISS - Orbit

View from above orbital plane
View from above orbital plane
View from above satellite
View from above satellite

Ground track
Ground track

The orbit data is extracted from the following two-line orbital elements,

1 25544U 98067A   14110.73719799  .00037655  00000-0  66186-3 0  1234
2 25544 051.6494 024.2994 0003721 310.7962 143.6241 15.50114440882411
Epoch (UTC): 20 April 2014 17:41:33
Eccentricity: 0.0003721
inclination: 51.6494°
perigee height: 414 km
apogee height: 419 km
right ascension of ascending node: 24.2994°
argument of perigee: 310.7962°
revolutions per day: 15.50114440
mean anomaly at epoch: 143.6241°
orbit number at epoch: 88241

The dashed part of the orbit path shows where the satellite is in the earth's shadow,  

DLR